User: anonymous   Login
Location: Unspecified
(0.0000°N, 0.0000°E)
Time: 23:04:51
(UTC+00:00)
Language:

LO-87 - Orbit

View from above orbital plane
View from above orbital plane
View from above satellite
View from above satellite

Ground track
Ground track

The orbit data is extracted from the following two-line orbital elements,

1 41557U 16033B   18344.47739221  .00001458  00000-0  58227-4 0  9996
2 41557  97.4298  68.0667 0012560 246.9974 112.9940 15.26714997141060
Epoch (UTC): 10 December 2018 11:27:26
Eccentricity: 0.0012560
inclination: 97.4298°
perigee height: 477 km
apogee height: 494 km
right ascension of ascending node: 68.0667°
argument of perigee: 246.9974°
revolutions per day: 15.26714997
mean anomaly at epoch: 112.9940°
orbit number at epoch: 14106

The dashed part of the orbit path shows where the satellite is in the earth's shadow,  

DLR